Weather History for Pine Ridge, SD

Change the Weather History Date:

Sunday, July 28, 2013

  Actual Average Record
Temperature  
Mean Temperature 67 °F 75 °F  
Max Temperature 76 °F 91 °F 106 °F (2006)
Min Temperature 57 °F 59 °F 50 °F (2005)
Degree Days  
Heating Degree Days 0 0  
Month to date heating degree days 2 4  
Since 1 June heating degree days 80 91  
Since 1 July heating degree days 2 4  
Cooling Degree Days 2 10  
Month to date cooling degree days 258 249  
Year to date cooling degree days 358 376  
Since 1 June cooling degree days 341 359  
Growing Degree Days 16 (Base 50)    
Moisture  
Dew Point 55 °F    
Average Humidity 67    
Maximum Humidity 80    
Minimum Humidity 53    
Precipitation  
Precipitation T in 0.08 in 0.02 in (2011)
Month to date precipitation 1.62 1.99  
Year to date precipitation 11.49 11.66  
Sea Level Pressure  
Sea Level Pressure 29.92 in    
Wind  
Wind Speed 10 mph (South)    
Max Wind Speed 20 mph    
Max Gust Speed 25 mph    
Visibility 10 miles    
Events      
T = Trace of Precipitation, MM = Missing Value Source: NWS Daily Summary

Daily Weather History Graph

Daily Weather History Graph

Search for Another Location

Airport:

Trip Planner

Search our weather history database for the weather conditions in past years. The results will help you decide how hot, cold, wet, or windy it might be!

Date:

Astronomy

Jul. 28, 2013 Rise Set
Actual Time 5:37 AM MDT 8:15 PM MDT
Civil Twilight 5:04 AM MDT 8:48 PM MDT
Nautical Twilight 4:23 AM MDT 9:28 PM MDT
Astronomical Twilight 3:36 AM MDT 10:15 PM MDT
Moon 11:25 PM MDT (7/28) 12:33 PM MDT (7/28)
Length of Visible Light 15h 43m
Length of Day
14h 38m
Waning Gibbous, 60% of the Moon is Illuminated
Jul 28
Waning Gibbous
Jul 29
Last Quarter
Aug 6
New
Aug 14
First Quarter
Aug 20
Full

Hourly Weather History & Observations

Time (MDT) Temp. Dew Point Humidity Pressure Visibility Wind Dir Wind Speed Gust Speed Precip Events Conditions
12:52 AM 62.1 °F 53.1 °F 72% 29.97 in 10.0 mi South 9.2 mph 16.1 mph N/A   Clear
1:52 AM 61.0 °F 53.1 °F 75% 29.96 in 10.0 mi South 11.5 mph 19.6 mph N/A   Clear
2:52 AM 60.1 °F 52.0 °F 75% 29.92 in 10.0 mi South 11.5 mph 19.6 mph N/A   Clear
3:52 AM 57.9 °F 52.0 °F 81% 29.93 in 10.0 mi Variable 3.5 mph - N/A   Clear
4:52 AM 57.9 °F 52.0 °F 81% 29.92 in 10.0 mi South 10.4 mph - N/A   Clear
5:52 AM 57.9 °F 52.0 °F 81% 29.91 in 10.0 mi South 9.2 mph 17.3 mph N/A   Clear
6:52 AM 60.1 °F 53.1 °F 78% 29.91 in 10.0 mi South 16.1 mph 21.9 mph N/A   Clear
7:52 AM 64.0 °F 54.0 °F 70% 29.91 in 10.0 mi South 11.5 mph 19.6 mph N/A   Clear
8:52 AM 66.9 °F 55.0 °F 66% 29.91 in 10.0 mi South 10.4 mph 20.7 mph N/A   Clear
9:52 AM 71.1 °F 55.9 °F 59% 29.91 in 10.0 mi South 12.7 mph 25.3 mph N/A   Clear
10:52 AM 70.0 °F 55.9 °F 61% 29.92 in 10.0 mi SSW 10.4 mph 19.6 mph N/A   Scattered Clouds
11:06 AM 71.6 °F 57.2 °F 60% 29.99 in 10.0 mi South 13.8 mph 18.4 mph N/A   Mostly Cloudy
11:35 AM 71.6 °F 57.2 °F 60% 29.98 in 10.0 mi SSE 10.4 mph 20.7 mph N/A   Overcast
11:52 AM 69.1 °F 55.9 °F 63% 29.91 in 10.0 mi South 12.7 mph 19.6 mph N/A   Mostly Cloudy
12:52 PM 71.1 °F 54.0 °F 55% 29.90 in 10.0 mi South 13.8 mph 20.7 mph 0.00 in   Partly Cloudy
1:52 PM 73.0 °F 55.9 °F 55% 29.90 in 10.0 mi South 12.7 mph 25.3 mph N/A   Overcast
2:52 PM 75.0 °F 57.0 °F 53% 29.88 in 10.0 mi South 10.4 mph 20.7 mph N/A   Overcast
3:52 PM 71.1 °F 57.0 °F 61% 29.89 in 10.0 mi South 11.5 mph - N/A   Overcast
4:52 PM 71.1 °F 57.0 °F 61% 29.88 in 10.0 mi SE 9.2 mph - N/A   Overcast
5:52 PM 71.1 °F 57.0 °F 61% 29.88 in 10.0 mi SSE 8.1 mph 16.1 mph N/A   Partly Cloudy
6:52 PM 69.1 °F 55.9 °F 63% 29.88 in 10.0 mi SE 9.2 mph - N/A   Partly Cloudy
7:52 PM 66.0 °F 55.9 °F 70% 29.90 in 10.0 mi SSE 9.2 mph 17.3 mph N/A   Scattered Clouds
8:00 PM 66.2 °F 55.4 °F 68% 29.96 in 10.0 mi SSE 10.4 mph 18.4 mph N/A   Mostly Cloudy
8:52 PM 63.0 °F 55.9 °F 78% 29.90 in 10.0 mi SSE 9.2 mph - N/A   Mostly Cloudy
9:03 PM 62.6 °F 55.4 °F 77% 29.96 in 10.0 mi SE 10.4 mph - N/A   Scattered Clouds
9:50 PM 62.6 °F 55.4 °F 77% 29.98 in 10.0 mi SSE 9.2 mph - N/A   Mostly Cloudy
9:52 PM 63.0 °F 55.9 °F 78% 29.91 in 10.0 mi SSE 8.1 mph - N/A   Mostly Cloudy
10:52 PM 63.0 °F 55.9 °F 78% 29.91 in 10.0 mi South 11.5 mph 19.6 mph N/A   Overcast
11:52 PM 62.1 °F 55.9 °F 80% 29.92 in 10.0 mi South 11.5 mph - N/A   Overcast